Chehalis, WA
on Monday, December 10, 2012

Monday
Previous Day Next Day
Daily Summary
 ActualAverage (KOLM)Record (KOLM)
Temperature
Mean Temperature °F 38°F  
Max Temperature 50°F 44°F 63°F (1993)
Min Temperature 39°F 33°F -1°F (1972)
Degree Days
Heating Degree Days 20 27  
Month to date heating degree days 259  
Since 1 July heating degree days 1704  
Cooling Degree Days 0 0  
Month to date cooling degree days 0  
Year to date cooling degree days 106  
Moisture
Dew Point 43°F   
Average Humidity 94    
Maximum Humidity 100    
Minimum Humidity 76    
Precipitation
Precipitation 0.02 in 0.24 in 2.41 in (1977)
Month to date precipitation 2.67  
Year to date precipitation 45.21  
Wind
Wind Speed 4 mph   
Max Wind Speed 9 mph   
Max Gust Speed mph   
Visibility 7 miles   
Events Rain   

Key: T is trace of precipitation, MM is missing value
Source: NWS Daily Summary
Time(PST)TemperatureDew PointHumidity Pressure Visibility Wind DirectionWind SpeedGust SpeedPrecipitationEvents Conditions
12:15 AM 44.6°F 44.6°F 100% 30.38 in 3.0 miles South 6.9 mph - N/A   Overcast
12:35 AM 44.6°F 44.6°F 100% 30.37 in 3.0 miles South 8.1 mph - N/A   Overcast
12:55 AM 44.6°F 44.6°F 100% 30.36 in 2.5 miles South 8.1 mph - N/A   Overcast
1:15 AM 44.6°F 44.6°F 100% 30.36 in 4.0 miles SSW 4.6 mph - N/A   Overcast
1:35 AM 44.6°F 44.6°F 100% 30.38 in 1.8 miles SW 3.5 mph - N/A Rain Light Rain
1:55 AM 46.4°F 44.6°F 93% 30.39 in 2.0 miles Calm Calm - N/A   Overcast
2:15 AM 46.4°F 44.6°F 93% 30.39 in 2.0 miles Calm Calm - 0.01 in   Overcast
2:35 AM 46.4°F 44.6°F 93% 30.39 in 4.0 miles South 4.6 mph - 0.01 in   Overcast
2:55 AM 44.6°F 44.6°F 100% 30.40 in 8.0 miles WSW 3.5 mph - 0.01 in   Overcast
3:35 AM 46.4°F 44.6°F 93% 30.41 in 2.0 miles SW 3.5 mph - N/A   Overcast
3:55 AM 46.4°F 44.6°F 93% 30.41 in 3.0 miles SW 3.5 mph - 0.01 in   Overcast
4:15 AM 46.4°F 44.6°F 93% 30.42 in 2.5 miles Calm Calm - N/A   Overcast
4:35 AM 46.4°F 44.6°F 93% 30.41 in 3.0 miles Calm Calm - N/A   Overcast
4:55 AM 44.6°F 44.6°F 100% 30.42 in 2.0 miles Calm Calm - N/A Rain Light Rain
5:15 AM 44.6°F 44.6°F 100% 30.42 in 1.8 miles Calm Calm - N/A Rain Light Rain
5:35 AM 44.6°F 44.6°F 100% 30.42 in 3.0 miles Calm Calm - N/A   Overcast
5:55 AM 44.6°F 44.6°F 100% 30.42 in 3.0 miles Calm Calm - N/A   Overcast
6:15 AM 44.6°F 44.6°F 100% 30.42 in 7.0 miles Calm Calm - N/A   Overcast
6:35 AM 44.6°F 44.6°F 100% 30.42 in 10.0 miles Calm Calm - N/A   Overcast
6:55 AM 44.6°F 44.6°F 100% 30.42 in 6.0 miles Calm Calm - N/A   Overcast
7:15 AM 44.6°F 44.6°F 100% 30.43 in 10.0 miles Calm Calm - N/A   Overcast
7:35 AM 44.6°F 44.6°F 100% 30.44 in 10.0 miles Calm Calm - N/A   Overcast
7:55 AM 44.6°F 44.6°F 100% 30.44 in 10.0 miles NNE 4.6 mph - N/A   Overcast
8:15 AM 44.6°F 44.6°F 100% 30.43 in 5.0 miles NE 4.6 mph - N/A   Overcast
8:35 AM 44.6°F 44.6°F 100% 30.43 in 2.5 miles Calm Calm - N/A   Overcast
9:15 AM 44.6°F 44.6°F 100% 30.43 in 5.0 miles Calm Calm - N/A   Overcast
9:35 AM 44.6°F 44.6°F 100% 30.43 in 10.0 miles Calm Calm - N/A   Overcast
9:55 AM 44.6°F 44.6°F 100% 30.43 in 5.0 miles SW 6.9 mph - N/A   Overcast
10:15 AM 44.6°F 44.6°F 100% 30.43 in 10.0 miles West 3.5 mph - N/A   Overcast
10:35 AM 44.6°F 42.8°F 93% 30.43 in 10.0 miles SW 8.1 mph - N/A   Overcast
10:55 AM 46.4°F 42.8°F 87% 30.43 in 10.0 miles WSW 3.5 mph - N/A   Overcast
11:15 AM 46.4°F 42.8°F 87% 30.43 in 8.0 miles Calm Calm - N/A   Overcast
11:35 AM 46.4°F 44.6°F 93% 30.43 in 7.0 miles Calm Calm - N/A   Overcast
11:55 AM 46.4°F 42.8°F 87% 30.43 in 9.0 miles SSW 4.6 mph - N/A   Overcast
12:15 PM 46.4°F 42.8°F 87% 30.41 in 10.0 miles South 4.6 mph - N/A   Overcast
12:35 PM 46.4°F 42.8°F 87% 30.41 in 10.0 miles SSW 5.8 mph - N/A   Overcast
1:15 PM 46.4°F 42.8°F 87% 30.39 in 10.0 miles South 5.8 mph - N/A   Overcast
1:35 PM 48.2°F 44.6°F 87% 30.39 in 10.0 miles South 6.9 mph - N/A   Overcast
1:55 PM 48.2°F 44.6°F 87% 30.37 in 10.0 miles South 5.8 mph - N/A   Overcast
2:15 PM 50.0°F 44.6°F 82% 30.37 in 10.0 miles South 5.8 mph - N/A   Overcast
2:35 PM 48.2°F 44.6°F 87% 30.36 in 10.0 miles SSW 4.6 mph - N/A   Overcast
2:55 PM 48.2°F 44.6°F 87% 30.36 in 10.0 miles Calm Calm - N/A   Overcast
3:15 PM 50.0°F 42.8°F 76% 30.36 in 10.0 miles WSW 4.6 mph - N/A   Mostly Cloudy
3:35 PM 48.2°F 42.8°F 82% 30.35 in 10.0 miles SW 4.6 mph - N/A   Mostly Cloudy
3:55 PM 48.2°F 42.8°F 82% 30.35 in 10.0 miles WSW 3.5 mph - N/A   Overcast
4:15 PM 48.2°F 42.8°F 82% 30.35 in 10.0 miles Calm Calm - N/A   Overcast
4:35 PM 46.4°F 42.8°F 87% 30.34 in 10.0 miles South 4.6 mph - N/A   Overcast
4:55 PM 46.4°F 41.0°F 81% 30.33 in 10.0 miles South 3.5 mph - N/A   Overcast
5:15 PM 46.4°F 42.8°F 87% 30.33 in 10.0 miles Calm Calm - N/A   Overcast
5:35 PM 44.6°F 42.8°F 93% 30.33 in 10.0 miles Calm Calm - N/A   Overcast
5:55 PM 44.6°F 42.8°F 93% 30.33 in 10.0 miles Calm Calm - N/A   Overcast
6:15 PM 44.6°F 41.0°F 87% 30.32 in 10.0 miles Calm Calm - N/A   Overcast
6:35 PM 42.8°F 41.0°F 93% 30.32 in 10.0 miles Calm Calm - N/A   Overcast
6:55 PM 41.0°F 41.0°F 100% 30.32 in 10.0 miles Calm Calm - N/A   Overcast
7:15 PM 41.0°F 41.0°F 100% 30.30 in 2.5 miles Calm Calm - N/A   Overcast
7:35 PM 41.0°F 39.2°F 93% 30.29 in 8.0 miles Calm Calm - N/A   Overcast
7:55 PM 39.2°F 39.2°F 100% 30.28 in 2.5 miles SW 3.5 mph - N/A   Overcast
8:15 PM 39.2°F 39.2°F 100% 30.26 in 4.0 miles SSW 3.5 mph - N/A   Overcast
8:35 PM 41.0°F 41.0°F 100% 30.25 in 10.0 miles WSW 3.5 mph - N/A   Overcast
8:55 PM 41.0°F 39.2°F 93% 30.24 in 5.0 miles SW 3.5 mph - N/A   Overcast
9:35 PM 42.8°F 41.0°F 93% 30.22 in 10.0 miles SSW 4.6 mph - N/A   Overcast
9:55 PM 42.8°F 41.0°F 93% 30.22 in 10.0 miles South 4.6 mph - N/A   Overcast
10:15 PM 41.0°F 41.0°F 100% 30.20 in 10.0 miles South 6.9 mph - N/A   Mostly Cloudy
10:35 PM 41.0°F 41.0°F 100% 30.18 in 10.0 miles South 6.9 mph - N/A   Mostly Cloudy
10:55 PM 41.0°F 39.2°F 93% 30.16 in 7.0 miles SSW 8.1 mph - N/A   Scattered Clouds
11:15 PM 41.0°F 39.2°F 93% 30.15 in 8.0 miles SSW 9.2 mph - N/A   Partly Cloudy
11:35 PM 41.0°F 39.2°F 93% 30.14 in 7.0 miles South 6.9 mph - N/A   Mostly Cloudy
11:55 PM 41.0°F 39.2°F 93% 30.14 in 7.0 miles SSW 5.8 mph - N/A   Mostly Cloudy
Moon Phase
Dec. 10 Dec. 13 Dec. 20 Dec. 28 Jan. 04
Sunrise:07:46 AM (PST) Moon Rise:04:29 AM (PST)12/10
Sunset:04:23 PM (PST) Moon Set:02:23 PM (PST)12/10

Copyright © 2014 The Weather Underground, Inc.